Regional Weather Roundup
Issued by NWS

Home | Current Version | Previous Version | Graphics & Text | Print | Product List | Glossary On
Versions: 1 2 3 4 5 6 7 8 9 10 11 12 13 14 15 16 17 18 19 20 21 22 23 24 25 26 27 28 29 30 31 32 33 34 35 36 37 38 39 40 41 42 43 44 45 46 47 48 49 50
000
ASUS43 KLSX 301157
RWRMO

WEATHER SUMMARY FOR MISSOURI
NATIONAL WEATHER SERVICE SPRINGFIELD MO
700 AM CDT SUN APR 30 2017

NOTE: "FAIR" INDICATES FEW OR NO CLOUDS BELOW 12,000 FEET WITH NO
       SIGNIFICANT WEATHER AND/OR OBSTRUCTIONS TO VISIBILITY.
       CURRENT SKY AND/OR WEATHER CONDITIONS ARE NOT AVAILABLE FOR
       CHILLICOTHE AND FARMINGTON.

MOZ001>031-035>038-043-044-053-054-301300-
...NORTHERN AND WESTERN MISSOURI...

CITY           SKY/WX    TMP DP  RH WIND       PRES   REMARKS
KANSAS CTY INT FOG       43  42  97 E16       29.60R VSB 1
6HR MIN TEMP:  42; 6HR MAX TEMP:  44; 6HR PCP:  0.05;

LEE`S SUMMIT   CLOUDY    45  45 100 NE15      29.60R FOG
6HR MIN TEMP:  44; 6HR MAX TEMP:  52; 6HR PCP: TRACE;

ST JOSEPH      CLOUDY    42  42 100 NE16G26   29.61F FOG
6HR MIN TEMP:  42; 6HR MAX TEMP:  42; 6HR PCP: TRACE;

CHILLICOTHE      N/A     45  44  97 NE8       29.67F
6HR MIN TEMP:  43; 6HR MAX TEMP:  45; 6HR PCP:  0.03;

KIRKSVILLE     CLOUDY    45  32  61 NE23G30   29.68F HAZE

$$
MOZ066>068-077>081-088>096-101>105-301300-
...SOUTHWEST MISSOURI...

CITY           SKY/WX    TMP DP  RH WIND       PRES   REMARKS
SPRINGFIELD    LGT RAIN  64  62  93 SE13      29.56S FOG
6HR MIN TEMP:  62; 6HR MAX TEMP:  64; 6HR PCP:  0.36;

JOPLIN         CLOUDY    59  58  96 SE9       29.52F
6HR MIN TEMP:  58; 6HR MAX TEMP:  65; 6HR PCP:  0.25;


$$
MOZ032>034-039>042-045>050-055>058-069>072-301300-
...CENTRAL MISSOURI...

CITY           SKY/WX    TMP DP  RH WIND       PRES   REMARKS
COLUMBIA       NOT AVBL
JEFFERSON CITY MOCLDY    59  55  87 E9        29.63S
6HR MIN TEMP:  50; 6HR MAX TEMP:  59; 6HR PCP:  0.70;

ROLLA          RAIN      61  50  67 E21G29    29.64R
6HR MIN TEMP:  59; 6HR MAX TEMP:  62; 6HR PCP:  2.04;

SEDALIA        LGT RAIN  58  58 100 E12       29.61F
6HR MIN TEMP:  47; 6HR MAX TEMP:  58; 6HR PCP:  0.33;

OSAGE BEACH    CLOUDY    63  61  94 SE14G21   29.62S THUNDER

$$
MOZ051-052-059>065-301300-
...EAST CENTRAL MISSOURI...

CITY           SKY/WX    TMP DP  RH WIND       PRES   REMARKS
ST LOUIS INTL  CLOUDY    53  51  93 SE13      29.71F
6HR MIN TEMP:  51; 6HR MAX TEMP:  55; 6HR PCP:  1.21;


$$
MOZ072>076-082>087-097>100-106>115-301300-
...SOUTH CENTRAL AND SOUTHEAST MISSOURI...

CITY           SKY/WX    TMP DP  RH WIND       PRES   REMARKS
CAPE GIRARDEAU RAIN      64  62  93 SE10      29.78R
6HR MIN TEMP:  63; 6HR MAX TEMP:  65;

FARMINGTON     HVY RAIN  63  63 100 CALM      29.79R FOG
POPLAR BLUFF   LGT RAIN  65  64  97 E9        29.75R FOG
6HR MIN TEMP:  65; 6HR MAX TEMP:  66; 6HR PCP:  1.91;


$$


USA.gov is the U.S. government's official web portal to all federal, state and local government web resources and services.